| time (UTC) | temp F | wind direction | speed knots | gust knots | rain 1hr in | rain 24hr in | rain mn in | humidity % | barometer mb |
| 20260504130511 | 59 | 307 | 4.3 | 9.6 | 0.00 | 0.00 | 0.00 | 53 | 997.2 |
| 20260504110511 | 56 | 337 | 1.7 | 5.2 | 0.00 | 0.00 | 0.00 | 49 | 996.1 |
| 20260504100505 | 55 | 249 | 0.0 | 5.2 | 0.00 | 0.00 | 0.00 | 49 | 996.5 |
| 20260504082003 | 54 | 283 | 0.0 | 2.6 | 0.00 | 0.00 | 0.00 | 49 | 998.3 |
| 20260504081513 | 54 | 217 | 0.0 | 2.6 | 0.00 | 0.00 | 0.00 | 50 | 998.3 |
| 20260504081009 | 54 | 261 | 0.0 | 2.6 | 0.00 | 0.00 | 0.00 | 49 | 998.5 |
| 20260504080507 | 54 | 345 | 0.0 | 2.6 | 0.00 | 0.00 | 0.00 | 50 | 998.6 |
| 20260504050513 | 52 | 260 | 0.0 | 0.0 | 0.00 | 0.00 | 0.00 | 62 | 1001.6 |
| 20260504045510 | 52 | 260 | 0.0 | 0.0 | 0.00 | 0.00 | 0.00 | 62 | 1001.8 |
| 20260504045009 | 52 | 260 | 0.0 | 0.0 | 0.00 | 0.00 | 0.00 | 61 | 1001.9 |
| 20260504044528 | 52 | 260 | 0.0 | 0.0 | 0.00 | 0.00 | 0.00 | 58 | 1002.1 |
| 20260504044010 | 52 | 260 | 0.0 | 0.0 | 0.00 | 0.00 | 0.00 | 54 | 1002.2 |
| 20260504043510 | 52 | 260 | 0.0 | 0.0 | 0.00 | 0.00 | 0.00 | 54 | 1002.4 |
| 20260504043018 | 52 | 260 | 0.0 | 0.0 | 0.00 | 0.00 | 0.00 | 55 | 1002.5 |
| 20260504042508 | 52 | 260 | 0.0 | 0.0 | 0.00 | 0.00 | 0.00 | 55 | 1002.5 |
| 20260504042007 | 52 | 260 | 0.0 | 0.0 | 0.00 | 0.00 | 0.00 | 55 | 1002.6 |
| 20260504041524 | 53 | 260 | 0.0 | 0.0 | 0.00 | 0.00 | 0.00 | 56 | 1002.6 |
| 20260504041010 | 53 | 260 | 0.0 | 0.0 | 0.00 | 0.00 | 0.00 | 55 | 1002.7 |
| 20260504040510 | 53 | 260 | 0.0 | 0.0 | 0.00 | 0.00 | 0.00 | 54 | 1002.8 |
| 20260504040020 | 53 | 260 | 0.0 | 0.0 | 0.00 | 0.00 | 0.00 | 53 | 1002.9 |
| 20260504035506 | 53 | 260 | 0.0 | 0.0 | 0.00 | 0.00 | 0.00 | 52 | 1002.9 |
| 20260504035008 | 53 | 260 | 0.0 | 0.0 | 0.00 | 0.00 | 0.00 | 52 | 1003.1 |
| 20260504034513 | 53 | 260 | 0.0 | 0.0 | 0.00 | 0.00 | 0.00 | 50 | 1003.1 |
| 20260504034005 | 54 | 260 | 0.0 | 0.0 | 0.00 | 0.00 | 0.00 | 49 | 1003.1 |
| 20260504033505 | 54 | 260 | 0.0 | 0.0 | 0.00 | 0.00 | 0.00 | 48 | 1003.2 |
| 20260504033033 | 54 | 260 | 0.0 | 0.0 | 0.00 | 0.00 | 0.00 | 50 | 1003.3 |
| 20260504032505 | 54 | 260 | 0.0 | 0.0 | 0.00 | 0.00 | 0.00 | 50 | 1003.4 |
| 20260504032008 | 55 | 260 | 0.0 | 0.0 | 0.00 | 0.00 | 0.00 | 53 | 1003.4 |
| 20260504031524 | 55 | 260 | 0.0 | 0.0 | 0.00 | 0.00 | 0.00 | 52 | 1003.4 |
| 20260504031008 | 55 | 260 | 0.0 | 0.0 | 0.00 | 0.00 | 0.00 | 56 | 1003.5 |
| 20260504030502 | 55 | 260 | 0.0 | 0.0 | 0.00 | 0.00 | 0.00 | 52 | 1003.5 |
| 20260504030009 | 56 | 260 | 0.0 | 0.0 | 0.00 | 0.00 | 0.00 | 52 | 1003.6 |
| 20260504025502 | 56 | 260 | 0.0 | 0.0 | 0.00 | 0.00 | 0.00 | 53 | 1003.7 |
| 20260504025004 | 57 | 260 | 0.0 | 0.0 | 0.00 | 0.00 | 0.00 | 49 | 1003.6 |
| 20260504024510 | 57 | 260 | 0.0 | 0.0 | 0.00 | 0.00 | 0.00 | 45 | 1003.6 |
| 20260504024008 | 57 | 260 | 0.0 | 0.0 | 0.00 | 0.00 | 0.00 | 51 | 1003.6 |
| 20260504023505 | 58 | 260 | 0.0 | 0.0 | 0.00 | 0.00 | 0.00 | 49 | 1003.6 |
| 20260504023014 | 58 | 260 | 0.0 | 0.0 | 0.00 | 0.00 | 0.00 | 50 | 1003.7 |
| 20260504022509 | 59 | 260 | 0.0 | 0.0 | 0.00 | 0.00 | 0.00 | 46 | 1003.7 |
| 20260504022008 | 59 | 260 | 0.0 | 0.0 | 0.00 | 0.00 | 0.00 | 45 | 1003.7 |
| 20260504021518 | 60 | 260 | 0.0 | 0.0 | 0.00 | 0.00 | 0.00 | 47 | 1003.7 |
| 20260504021006 | 61 | 260 | 0.0 | 0.0 | 0.00 | 0.00 | 0.00 | 50 | 1003.7 |
| 20260504020512 | 61 | 260 | 0.0 | 0.0 | 0.00 | 0.00 | 0.00 | 45 | 1003.7 |
| 20260504020025 | 62 | 260 | 0.0 | 0.0 | 0.00 | 0.00 | 0.00 | 43 | 1003.7 |
| 20260504015509 | 62 | 260 | 0.0 | 0.0 | 0.00 | 0.00 | 0.00 | 40 | 1003.7 |
| 20260504015001 | 63 | 260 | 0.0 | 0.0 | 0.00 | 0.00 | 0.00 | 39 | 1003.8 |
| 20260504014520 | 63 | 260 | 0.0 | 0.0 | 0.00 | 0.00 | 0.00 | 42 | 1003.8 |
| 20260504014002 | 64 | 260 | 0.0 | 0.0 | 0.00 | 0.00 | 0.00 | 33 | 1003.9 |
| 20260504013509 | 64 | 260 | 0.0 | 0.9 | 0.00 | 0.00 | 0.00 | 32 | 1003.9 |
| 20260504013012 | 64 | 260 | 0.0 | 0.9 | 0.00 | 0.00 | 0.00 | 30 | 1004.0 |
| 20260504012510 | 65 | 260 | 0.0 | 1.7 | 0.00 | 0.00 | 0.00 | 30 | 1004.0 |
| 20260504012008 | 65 | 260 | 0.0 | 2.6 | 0.00 | 0.00 | 0.00 | 30 | 1004.1 |
| 20260504011518 | 66 | 269 | 0.9 | 2.6 | 0.00 | 0.00 | 0.00 | 30 | 1004.1 |
| 20260504011007 | 66 | 244 | 0.9 | 2.6 | 0.00 | 0.00 | 0.00 | 31 | 1004.0 |
| 20260504010507 | 66 | 257 | 0.9 | 3.5 | 0.00 | 0.00 | 0.00 | 29 | 1004.0 |
| 20260504010020 | 67 | 292 | 1.7 | 4.3 | 0.00 | 0.00 | 0.00 | 31 | 1004.1 |
| 20260504005510 | 67 | 256 | 0.9 | 4.3 | 0.00 | 0.00 | 0.00 | 30 | 1004.1 |
| 20260504005009 | 67 | 285 | 1.7 | 5.2 | 0.00 | 0.00 | 0.00 | 31 | 1004.2 |
| 20260504004540 | 67 | 277 | 2.6 | 5.2 | 0.00 | 0.00 | 0.00 | 28 | 1004.2 |
| 20260504004009 | 68 | 308 | 1.7 | 5.2 | 0.00 | 0.00 | 0.00 | 31 | 1004.2 |
| 20260504003505 | 68 | 294 | 2.6 | 7.0 | 0.00 | 0.00 | 0.00 | 29 | 1004.2 |
| 20260504003010 | 68 | 297 | 3.5 | 9.6 | 0.00 | 0.00 | 0.00 | 30 | 1004.2 |
| 20260504002503 | 68 | 293 | 5.2 | 9.6 | 0.00 | 0.00 | 0.00 | 32 | 1004.2 |
| 20260504002005 | 69 | 311 | 3.5 | 6.1 | 0.00 | 0.00 | 0.00 | 32 | 1004.3 |
| 20260504001517 | 69 | 293 | 2.6 | 5.2 | 0.00 | 0.00 | 0.00 | 31 | 1004.4 |
| 20260504001011 | 68 | 288 | 2.6 | 6.1 | 0.00 | 0.00 | 0.00 | 32 | 1004.4 |
| 20260504000506 | 68 | 293 | 2.6 | 7.0 | 0.00 | 0.00 | 0.00 | 32 | 1004.4 |
| 20260504000018 | 68 | 290 | 3.5 | 7.8 | 0.00 | 0.00 | 0.00 | 32 | 1004.4 |
| 20260503235510 | 68 | 322 | 3.5 | 7.8 | 0.00 | 0.00 | 0.00 | 32 | 1004.3 |
| 20260503235006 | 69 | 307 | 4.3 | 8.7 | 0.00 | 0.00 | 0.00 | 29 | 1004.2 |
| 20260503234524 | 70 | 291 | 4.3 | 8.7 | 0.00 | 0.00 | 0.00 | 27 | 1004.3 |
| 20260503234010 | 70 | 266 | 2.6 | 10.4 | 0.00 | 0.00 | 0.00 | 28 | 1004.3 |
| 20260503233510 | 69 | 296 | 3.5 | 10.4 | 0.00 | 0.00 | 0.00 | 29 | 1004.4 |
| 20260503233028 | 69 | 287 | 5.2 | 9.6 | 0.00 | 0.00 | 0.00 | 30 | 1004.4 |
| 20260503232509 | 69 | 318 | 2.6 | 6.1 | 0.00 | 0.00 | 0.00 | 30 | 1004.5 |
| 20260503232002 | 69 | 323 | 3.5 | 6.1 | 0.00 | 0.00 | 0.00 | 33 | 1004.6 |
| 20260503231512 | 69 | 304 | 2.6 | 10.4 | 0.00 | 0.00 | 0.00 | 29 | 1004.7 |
| 20260503231007 | 69 | 318 | 5.2 | 10.4 | 0.00 | 0.00 | 0.00 | 31 | 1004.7 |
| 20260503230504 | 69 | 323 | 3.5 | 7.8 | 0.00 | 0.00 | 0.00 | 30 | 1004.7 |
| 20260503230015 | 69 | 295 | 4.3 | 7.8 | 0.00 | 0.00 | 0.00 | 33 | 1004.7 |
| 20260503225506 | 68 | 312 | 1.7 | 7.0 | 0.00 | 0.00 | 0.00 | 33 | 1004.7 |
| 20260503225014 | 68 | 278 | 3.5 | 7.8 | 0.00 | 0.00 | 0.00 | 30 | 1004.8 |
| 20260503224524 | 68 | 293 | 4.3 | 7.8 | 0.00 | 0.00 | 0.00 | 36 | 1004.8 |
| 20260503224007 | 68 | 325 | 3.5 | 9.6 | 0.00 | 0.00 | 0.00 | 31 | 1004.8 |
| 20260503223507 | 68 | 350 | 4.3 | 9.6 | 0.00 | 0.00 | 0.00 | 31 | 1004.9 |
| 20260503223026 | 68 | 310 | 3.5 | 8.7 | 0.00 | 0.00 | 0.00 | 31 | 1005.0 |
| 20260503222509 | 68 | 354 | 5.2 | 8.7 | 0.00 | 0.00 | 0.00 | 30 | 1005.0 |
| 20260503222010 | 68 | 316 | 5.2 | 13.0 | 0.00 | 0.00 | 0.00 | 31 | 1005.0 |
| 20260503221527 | 68 | 292 | 6.1 | 13.0 | 0.00 | 0.00 | 0.00 | 30 | 1004.9 |
| 20260503221010 | 68 | 287 | 7.0 | 13.0 | 0.00 | 0.00 | 0.00 | 29 | 1005.0 |
| 20260503220512 | 68 | 243 | 4.3 | 13.0 | 0.00 | 0.00 | 0.00 | 32 | 1005.0 |
| 20260503220012 | 68 | 297 | 6.1 | 10.4 | 0.00 | 0.00 | 0.00 | 30 | 1005.0 |
| 20260503215504 | 68 | 271 | 6.1 | 10.4 | 0.00 | 0.00 | 0.00 | 28 | 1005.0 |
| 20260503215007 | 68 | 316 | 5.2 | 12.2 | 0.00 | 0.00 | 0.00 | 34 | 1005.0 |
| 20260503214505 | 68 | 278 | 6.1 | 12.2 | 0.00 | 0.00 | 0.00 | 28 | 1004.9 |
| 20260503214002 | 67 | 327 | 7.0 | 9.6 | 0.00 | 0.00 | 0.00 | 33 | 1004.9 |
| 20260503213506 | 67 | 347 | 5.2 | 9.6 | 0.00 | 0.00 | 0.00 | 35 | 1005.1 |
| 20260503213004 | 68 | 354 | 4.3 | 9.6 | 0.00 | 0.00 | 0.00 | 33 | 1005.2 |
| 20260503212504 | 68 | 309 | 4.3 | 8.7 | 0.00 | 0.00 | 0.00 | 35 | 1005.1 |
| 20260503212005 | 67 | 310 | 5.2 | 10.4 | 0.00 | 0.00 | 0.00 | 32 | 1005.1 |
| 20260503211508 | 67 | 347 | 6.1 | 10.4 | 0.00 | 0.00 | 0.00 | 35 | 1005.2 |
| 20260503211007 | 67 | 283 | 4.3 | 9.6 | 0.00 | 0.00 | 0.00 | 38 | 1005.2 |
| 20260503210503 | 68 | 320 | 6.1 | 9.6 | 0.00 | 0.00 | 0.00 | 36 | 1005.2 |
| 20260503210013 | 67 | 304 | 3.5 | 7.8 | 0.00 | 0.00 | 0.00 | 38 | 1005.2 |
| 20260503205505 | 67 | 317 | 3.5 | 7.8 | 0.00 | 0.00 | 0.00 | 36 | 1005.3 |
| 20260503205007 | 67 | 342 | 4.3 | 9.6 | 0.00 | 0.00 | 0.00 | 35 | 1005.4 |
| 20260503204520 | 68 | 338 | 4.3 | 9.6 | 0.00 | 0.00 | 0.00 | 32 | 1005.5 |
| 20260503204014 | 68 | 294 | 3.5 | 9.6 | 0.00 | 0.00 | 0.00 | 34 | 1005.5 |
| 20260503203506 | 67 | 313 | 3.5 | 10.4 | 0.00 | 0.00 | 0.00 | 32 | 1005.5 |
| 20260503203008 | 67 | 316 | 5.2 | 10.4 | 0.00 | 0.00 | 0.00 | 32 | 1005.7 |
| 20260503202508 | 67 | 313 | 6.1 | 9.6 | 0.00 | 0.00 | 0.00 | 30 | 1005.8 |
| 20260503202003 | 67 | 290 | 5.2 | 10.4 | 0.00 | 0.00 | 0.00 | 35 | 1005.8 |
| 20260503201520 | 67 | 295 | 6.1 | 10.4 | 0.00 | 0.00 | 0.00 | 32 | 1005.9 |
| 20260503201002 | 67 | 297 | 2.6 | 8.7 | 0.00 | 0.00 | 0.00 | 34 | 1005.9 |
| 20260503200504 | 66 | 331 | 3.5 | 8.7 | 0.00 | 0.00 | 0.00 | 34 | 1006.0 |
| 20260503200011 | 66 | 325 | 6.1 | 10.4 | 0.00 | 0.00 | 0.00 | 33 | 1006.2 |
| 20260503195507 | 66 | 2 | 6.1 | 10.4 | 0.00 | 0.00 | 0.00 | 32 | 1006.2 |
| 20260503195006 | 67 | 314 | 5.2 | 9.6 | 0.00 | 0.00 | 0.00 | 32 | 1006.3 |
| 20260503194517 | 67 | 28 | 5.2 | 12.2 | 0.00 | 0.00 | 0.00 | 32 | 1006.3 |
| 20260503194006 | 66 | 288 | 7.8 | 12.2 | 0.00 | 0.00 | 0.00 | 32 | 1006.3 |
| 20260503193510 | 66 | 331 | 3.5 | 10.4 | 0.00 | 0.00 | 0.00 | 37 | 1006.3 |
| 20260503193035 | 66 | 324 | 5.2 | 10.4 | 0.00 | 0.00 | 0.00 | 37 | 1006.3 |
| 20260503192506 | 66 | 326 | 5.2 | 8.7 | 0.00 | 0.00 | 0.00 | 31 | 1006.2 |
| 20260503192007 | 66 | 315 | 3.5 | 10.4 | 0.00 | 0.00 | 0.00 | 33 | 1006.4 |
| 20260503191518 | 66 | 344 | 7.0 | 10.4 | 0.00 | 0.00 | 0.00 | 34 | 1006.4 |
| 20260503191003 | 66 | 8 | 4.3 | 11.3 | 0.00 | 0.00 | 0.00 | 36 | 1006.3 |
| 20260503190506 | 66 | 330 | 6.1 | 11.3 | 0.00 | 0.00 | 0.00 | 40 | 1006.4 |
| 20260503190009 | 66 | 314 | 5.2 | 12.2 | 0.00 | 0.00 | 0.00 | 42 | 1006.4 |
| 20260503185503 | 66 | 324 | 5.2 | 12.2 | 0.00 | 0.00 | 0.00 | 39 | 1006.4 |
| 20260503185003 | 65 | 330 | 3.5 | 9.6 | 0.00 | 0.00 | 0.00 | 36 | 1006.4 |
| 20260503184521 | 65 | 1 | 4.3 | 10.4 | 0.00 | 0.00 | 0.00 | 40 | 1006.5 |
| 20260503184006 | 65 | 307 | 7.0 | 10.4 | 0.00 | 0.00 | 0.00 | 40 | 1006.5 |
| 20260503183507 | 65 | 324 | 4.3 | 8.7 | 0.00 | 0.00 | 0.00 | 40 | 1006.4 |
| 20260503183018 | 65 | 321 | 5.2 | 8.7 | 0.00 | 0.00 | 0.00 | 39 | 1006.5 |
| 20260503182507 | 65 | 4 | 4.3 | 8.7 | 0.00 | 0.00 | 0.00 | 38 | 1006.6 |
| 20260503182007 | 65 | 61 | 2.6 | 10.4 | 0.00 | 0.00 | 0.00 | 39 | 1006.6 |
| 20260503181524 | 65 | 356 | 5.2 | 12.2 | 0.00 | 0.00 | 0.00 | 38 | 1006.6 |
| 20260503181008 | 65 | 288 | 5.2 | 12.2 | 0.00 | 0.00 | 0.00 | 41 | 1006.8 |
| 20260503180506 | 64 | 301 | 6.1 | 10.4 | 0.00 | 0.00 | 0.00 | 39 | 1006.7 |
| 20260503180022 | 64 | 34 | 4.3 | 10.4 | 0.00 | 0.00 | 0.00 | 41 | 1006.7 |
| 20260503175502 | 64 | 267 | 4.3 | 12.2 | 0.00 | 0.00 | 0.00 | 43 | 1006.7 |
| 20260503175006 | 64 | 322 | 7.8 | 12.2 | 0.00 | 0.00 | 0.00 | 42 | 1006.7 |
| 20260503174510 | 64 | 302 | 6.1 | 12.2 | 0.00 | 0.00 | 0.00 | 45 | 1006.7 |
| 20260503174003 | 64 | 262 | 7.0 | 12.2 | 0.00 | 0.00 | 0.00 | 42 | 1006.8 |
| 20260503173506 | 64 | 324 | 6.1 | 10.4 | 0.00 | 0.00 | 0.00 | 43 | 1006.7 |
| 20260503173022 | 64 | 332 | 5.2 | 14.8 | 0.00 | 0.00 | 0.00 | 39 | 1006.7 |
| 20260503172508 | 64 | 318 | 6.1 | 14.8 | 0.00 | 0.00 | 0.00 | 44 | 1006.6 |
| 20260503172005 | 64 | 349 | 3.5 | 10.4 | 0.00 | 0.00 | 0.00 | 46 | 1006.7 |
| 20260503171524 | 64 | 358 | 6.1 | 10.4 | 0.00 | 0.00 | 0.00 | 45 | 1006.8 |
| 20260503171008 | 64 | 330 | 5.2 | 10.4 | 0.00 | 0.00 | 0.00 | 47 | 1006.8 |
| 20260503170507 | 64 | 305 | 2.6 | 8.7 | 0.00 | 0.00 | 0.00 | 45 | 1006.7 |
| 20260503151006 | 60 | 327 | 4.3 | 11.3 | 0.00 | 0.00 | 0.00 | 48 | 1006.5 |
| 20260503150506 | 60 | 311 | 7.0 | 11.3 | 0.00 | 0.00 | 0.00 | 49 | 1006.4 |